Starlink 11454

operational
NORAD ID: 62059 Int'l Des: 2024-217 Owner: SPXS Country: US Constellation: starlink
LEOCIRCULAR

About Starlink 11454

Description loading...

Live Position

Loading 3D Globe...

Upcoming Passes

Altitude History

Altitude vs Time

uPlot chart will show altitude changes over time

Two-Line Element Set

1 62059U 24217C 25303.56176938 .00168515 00000-0 13629-2 0 9995
2 62059 53.1567 352.8757 0001451 135.9551 224.1582 15.69795513 54732
Epoch: Oct 30, 2025 • Age: 19 hours

Current Status

Altitude 363.1 km
Velocity 7.70 km/s
Sub-Earth Point 44.19°N, 125.5°W
Launch Date Nov 24, 2024
Age 0.9 years
Type internet

Technical Details

Classification Payload
Mass 960.00 kg
Dry Mass 910.00 kg
Total Mass 960.00 kg
Length 0.30 m
Diameter 4.10 m
Span 29.00 m
Shape Box + pan
Manufacturer SPXS
Bus Type Starlink V2MD
Phase Status In Orbit
Owner/State SPXS/US

Large Constellations

Loading constellations...